Wetbulb
56.42 56.18 56.34 56.49 56.82 56.84 56.59 56.49 56.85 57.14 57.56 58.07 58.25 58.61 58.86 59.07 58.82 57.64 52.84 57.81 60.31 66.71 66.96 64.15 62.06 60.23 59.43 58.54 59.34 56.76 52.08 48.55 49.60 49.57 51.08 49.74 49.32 50.19 52.23 51.42 52.06 52.78 52.60 53.20 54.48
55.92 55.80 55.93 55.87 55.92 56.23 55.81 55.97 56.07 56.96 57.48 57.67 57.77 57.93 58.41 58.76 56.29 53.07 59.97 64.26 66.36 67.65 62.83 60.12 58.12 58.63 56.64 55.86 56.31 54.69 50.95 50.55 54.03 53.02 51.69 50.38 50.01 50.48 50.86 50.37 50.56 51.08 52.12 53.17 54.27
55.52 55.42 55.51 55.49 55.55 55.81 55.47 55.48 55.55 55.98 56.61 56.86 56.73 57.07 58.11 58.46 53.58 52.21 66.79 65.71 66.62 66.42 60.31 60.02 59.08 57.61 54.67 54.74 54.64 53.60 49.72 52.36 52.96 54.22 52.91 50.77 48.61 51.24 50.55 49.03 51.99 51.74 51.79 52.94 53.85
54.58 55.01 54.93 55.07 55.19 54.83 54.77 54.79 54.91 55.41 55.66 55.62 56.07 57.06 58.02 56.86 43.11 54.68 69.94 67.52 67.75 63.55 59.26 57.31 56.29 53.89 52.10 50.98 53.73 50.19 53.40 53.88 54.01 52.89 49.92 49.01 50.21 49.49 51.11 52.21 53.40 53.87 53.91 53.37 53.60
53.87 53.91 53.95 54.09 54.19 54.00 53.94 53.87 54.12 54.35 54.46 54.53 55.62 56.76 56.16 49.77 48.10 58.31 69.02 68.41 65.23 60.67 56.99 56.59 54.76 53.77 51.14 51.97 51.90 51.19 52.67 51.76 52.16 50.44 50.34 49.84 49.20 50.00 50.70 53.03 53.34 53.25 52.71 53.11 53.80
53.59 53.55 53.49 53.59 53.42 53.55 53.97 53.97 53.85 53.93 53.74 54.40 55.43 56.65 52.48 43.78 53.01 56.91 56.90 60.84 60.33 59.01 57.26 57.10 55.91 56.18 53.25 51.94 51.62 53.28 52.14 50.09 49.73 49.38 49.51 49.08 48.85 49.90 51.68 53.34 52.10 52.15 52.54 52.84 53.28
53.89 53.44 53.42 53.27 53.24 53.28 53.61 53.72 53.43 53.41 53.81 55.01 55.98 55.51 51.10 47.45 52.73 61.00 62.07 60.86 61.90 59.65 56.36 57.97 57.68 55.78 55.43 52.22 54.11 51.17 49.00 49.56 49.63 49.60 49.27 50.12 47.61 48.30 52.75 53.04 51.91 51.54 51.81 52.23 53.61
54.15 53.97 53.37 53.15 53.03 53.05 53.06 53.54 53.21 53.47 54.44 56.42 56.92 55.23 46.31 53.82 55.58 53.15 55.96 56.04 57.78 60.70 58.78 58.82 58.23 55.93 54.27 53.94 51.38 48.77 48.30 45.80 49.00 48.91 48.78 49.19 45.60 51.29 52.49 51.63 51.33 50.64 50.75 51.66 52.94
54.17 53.70 53.56 53.05 52.93 52.86 52.94 52.89 52.84 53.69 56.10 57.69 55.13 52.90 47.19 56.34 53.55 54.50 53.69 50.61 52.94 57.95 59.54 57.98 57.92 55.01 52.13 49.95 47.35 47.85 45.27 46.13 46.44 49.24 47.96 47.95 46.34 50.79 51.11 51.57 51.59 50.49 50.67 51.41 52.46
53.82 53.47 53.47 52.98 52.77 52.81 52.57 52.21 51.87 52.55 58.41 57.53 57.08 49.38 50.94 48.05 52.08 56.12 55.38 53.91 54.92 56.05 55.24 55.07 53.11 51.18 49.99 48.13 42.20 44.75 44.43 44.82 45.30 48.43 47.42 46.61 46.24 50.54 51.42 50.82 50.97 50.67 50.56 51.35 52.03
54.44 53.44 53.49 53.37 52.73 52.36 50.68 46.96 48.71 50.18 54.21 48.48 48.45 46.93 48.11 53.14 55.02 54.31 56.69 53.31 55.81 54.42 50.15 52.20 49.25 47.03 49.20 49.58 48.97 48.49 46.53 45.53 47.33 49.67 47.39 47.63 47.83 49.43 51.46 50.25 50.30 50.59 50.57 51.29 52.22
53.97 54.02 53.76 53.23 52.46 52.15 48.49 43.42 43.70 44.02 41.86 48.52 49.32 51.49 53.26 53.36 48.38 51.50 57.83 52.58 52.82 48.76 50.79 48.49 47.21 51.01 51.05 49.54 48.01 47.12 45.67 45.65 47.90 48.36 47.72 48.11 47.24 50.16 50.69 50.66 51.60 51.75 50.87 51.32 52.39
53.66 53.82 53.06 52.61 52.33 47.67 43.62 45.16 48.16 46.60 42.72 46.09 49.09 49.20 50.62 51.78 48.62 49.35 55.19 53.12 50.81 48.63 49.28 48.28 49.94 50.30 49.33 47.71 46.68 46.96 46.05 46.01 46.02 46.86 47.63 46.14 45.43 48.34 50.90 50.09 50.71 51.97 52.77 52.35 52.41
52.75 53.70 52.98 52.14 46.17 45.62 42.84 47.22 48.24 46.01 39.80 42.47 45.91 49.19 50.80 51.42 47.39 52.61 54.43 53.89 50.88 48.74 49.35 49.88 50.50 48.91 48.12 47.71 48.61 45.35 48.93 47.93 46.63 44.93 41.98 46.41 39.84 46.37 49.59 50.14 50.64 51.52 50.79 51.34 52.11
52.08 53.20 53.07 50.57 46.43 44.10 44.93 48.37 48.18 45.63 29.44 43.55 46.65 53.52 51.50 48.17 49.39 49.39 54.71 53.44 49.96 49.06 49.92 48.11 47.69 47.90 47.21 48.21 49.50 47.55 49.32 47.92 46.85 45.35 43.41 43.27 40.91 44.90 47.25 48.15 51.19 53.76 51.57 51.47 52.57
51.88 52.04 52.45 47.84 47.42 47.44 48.33 47.63 46.72 39.05 29.91 41.13 47.36 46.35 46.11 47.78 48.04 49.66 50.38 54.13 54.26 50.47 50.02 50.80 51.63 51.21 50.49 50.79 50.27 50.91 47.53 45.77 44.88 44.04 39.19 43.55 42.35 43.57 46.34 49.15 51.37 52.87 52.02 51.09 52.10
51.06 51.31 50.70 47.02 43.34 47.71 47.62 44.89 38.60 32.58 42.42 40.78 42.55 45.77 45.77 44.58 45.73 47.78 46.45 46.25 46.47 44.29 45.08 47.91 48.88 50.49 51.86 48.81 48.84 49.10 46.42 40.28 38.47 38.95 37.88 42.49 41.15 44.86 50.36 51.89 51.33 52.22 52.86 51.41 52.02
50.52 50.78 49.92 47.62 46.13 48.30 45.54 39.73 31.68 38.50 39.56 44.12 43.41 45.33 42.68 45.29 45.06 45.32 45.39 43.58 48.64 48.79 46.13 43.12 41.42 47.88 50.37 49.82 47.40 47.17 47.29 40.93 33.76 35.65 39.13 42.10 39.96 44.66 51.65 52.97 53.66 53.33 53.41 51.75 51.51
49.22 48.66 46.97 48.66 47.84 47.59 39.31 32.67 35.47 38.91 42.93 41.93 42.87 42.12 42.17 44.39 44.66 44.24 44.60 44.48 47.01 49.94 44.24 43.43 43.24 49.17 49.89 50.94 50.70 44.91 43.39 48.30 43.32 41.01 39.38 42.41 45.15 50.04 52.32 53.24 52.11 50.60 50.02 49.89 51.58
45.96 45.08 44.14 48.23 48.67 43.46 35.02 33.28 38.22 43.52 44.42 43.97 40.03 42.72 40.64 42.25 42.55 43.15 43.27 46.35 45.75 49.10 52.33 47.03 42.45 47.93 49.29 50.65 49.36 48.59 48.93 42.15 42.75 35.47 34.25 39.56 41.11 43.57 48.84 51.18 52.86 50.39 50.00 50.42 51.88
44.44 39.39 45.97 49.34 46.82 38.22 29.91 33.33 38.09 43.50 44.77 43.00 41.52 41.60 42.54 42.00 43.41 42.64 42.96 45.52 47.98 47.24 50.74 49.56 47.34 44.16 47.50 46.79 46.28 45.44 44.94 45.08 44.79 42.46 37.94 36.52 40.96 50.67 50.99 54.06 55.17 54.60 52.43 51.20 51.70
42.10 33.88 46.64 48.48 34.71 34.89 32.16 35.34 38.76 39.17 43.10 42.44 44.22 43.60 42.67 43.27 43.07 42.88 42.72 45.18 48.25 49.50 45.90 49.53 48.05 43.10 44.39 48.57 51.33 49.72 47.24 47.60 41.89 40.51 42.17 41.61 41.89 51.76 54.19 55.61 56.44 54.82 52.56 52.32 52.85
37.30 36.91 46.55 45.58 29.82 32.60 35.81 35.54 37.01 36.29 38.14 40.91 41.82 43.44 44.96 43.55 41.59 44.36 44.50 48.01 48.07 48.37 48.40 48.71 47.08 41.19 41.72 46.74 49.43 46.40 47.46 48.73 47.91 46.99 42.56 39.88 42.58 52.24 54.44 55.27 55.47 54.11 52.45 51.45 52.37
36.59 31.86 35.03 40.44 39.37 35.08 33.85 33.09 32.51 38.26 37.54 38.44 38.00 43.49 42.65 42.04 43.85 42.07 43.98 45.77 47.76 48.74 52.74 51.12 47.76 44.65 39.96 42.95 47.40 45.66 46.62 47.24 47.21 43.06 43.15 43.45 45.47 49.93 52.67 54.25 54.51 54.82 53.63 52.66 52.23
36.71 33.37 35.49 30.70 32.57 33.85 34.60 34.50 32.20 32.02 37.95 40.69 38.67 40.12 40.56 39.97 41.41 41.52 43.33 44.48 46.01 50.40 49.62 50.26 44.29 45.64 46.59 46.77 47.60 46.87 46.95 47.81 45.70 46.66 43.44 45.92 46.40 50.21 53.33 54.76 56.67 56.42 53.41 51.83 51.95
33.13 34.35 35.25 34.85 33.75 34.34 34.89 32.89 32.72 34.39 35.64 35.71 36.39 40.88 40.33 39.13 40.06 40.65 41.99 43.04 42.57 45.15 47.65 46.87 44.57 45.50 43.53 45.58 46.12 44.54 46.31 47.69 47.98 47.68 47.58 47.80 47.77 54.26 55.49 56.80 55.99 54.63 52.34 51.91 52.58
39.54 41.34 37.49 35.37 34.67 34.45 33.65 33.83 34.25 36.49 37.77 38.73 38.60 37.81 38.11 40.42 43.56 44.62 44.57 44.57 43.41 42.59 42.90 45.48 45.69 42.82 40.33 44.31 44.29 40.84 44.98 45.98 47.80 49.38 48.64 45.50 50.05 54.12 53.87 55.18 56.72 55.91 53.77 53.78 54.27
MSLP
1018.91 1018.56 1018.58 1018.59 1017.85 1017.56 1017.75 1017.66 1016.35 1016.26 1015.90 1015.25 1014.85 1015.16 1013.99 1013.67 1013.20 1012.96 1011.98 1010.55 1010.81 1011.33 1011.76 1012.21 1012.43 1012.24 1012.27 1012.09 1012.36 1012.46 1011.85 1011.23 1011.15 1010.98 1010.68 1011.16 1011.22 1011.59 1011.75 1011.74 1012.50 1013.12 1013.65 1014.30 1014.87
1019.46 1019.20 1019.08 1018.58 1017.70 1017.56 1017.76 1016.80 1016.30 1015.87 1014.94 1014.64 1014.53 1013.89 1014.07 1014.02 1013.19 1011.32 1009.70 1009.31 1010.22 1010.72 1011.15 1011.30 1011.66 1011.89 1011.76 1011.77 1012.10 1011.90 1011.51 1010.83 1010.67 1010.38 1010.19 1010.52 1010.91 1011.10 1011.60 1011.87 1012.38 1013.11 1014.14 1014.70 1014.92
1019.22 1018.71 1018.64 1017.96 1018.02 1017.72 1016.41 1016.96 1016.48 1015.83 1015.17 1015.27 1014.94 1014.53 1014.11 1014.04 1012.77 1009.38 1008.45 1008.46 1009.19 1009.67 1009.95 1010.47 1010.82 1011.32 1011.24 1011.34 1011.61 1011.48 1010.70 1010.30 1010.03 1009.72 1009.88 1010.23 1010.63 1010.83 1011.02 1011.59 1011.46 1012.12 1013.50 1014.36 1014.73
1019.06 1018.68 1018.22 1018.35 1018.02 1017.28 1016.90 1016.60 1016.64 1015.86 1015.35 1015.38 1015.13 1014.56 1014.07 1013.85 1011.69 1008.66 1008.38 1008.31 1009.23 1009.47 1009.73 1010.08 1010.43 1010.58 1010.74 1010.81 1011.03 1011.05 1010.42 1010.13 1009.58 1009.63 1010.00 1010.16 1010.25 1010.38 1010.74 1010.43 1011.24 1011.86 1012.89 1013.92 1014.44
1018.89 1018.64 1018.28 1017.95 1017.47 1017.14 1017.06 1016.90 1016.16 1015.59 1015.25 1015.09 1015.08 1014.73 1014.21 1013.10 1009.58 1008.28 1008.56 1008.48 1008.89 1009.33 1009.21 1009.27 1009.54 1009.84 1009.97 1010.35 1010.60 1010.52 1010.00 1009.91 1009.68 1009.69 1009.80 1010.11 1010.27 1010.39 1010.20 1010.83 1011.37 1011.99 1013.05 1013.70 1014.26
1018.71 1018.52 1018.27 1017.79 1017.22 1016.89 1016.77 1016.47 1015.74 1015.22 1014.93 1014.76 1014.92 1015.01 1014.30 1011.57 1008.01 1007.87 1008.06 1008.20 1008.44 1008.50 1008.84 1008.58 1008.36 1008.88 1009.58 1010.04 1010.12 1009.38 1009.68 1009.58 1009.69 1009.91 1009.96 1010.05 1010.29 1010.67 1010.15 1010.95 1011.51 1012.04 1012.80 1013.62 1014.03
1018.38 1018.21 1017.95 1017.56 1017.22 1016.85 1016.38 1015.61 1014.87 1014.52 1014.32 1014.19 1014.44 1014.66 1013.17 1008.80 1007.59 1007.63 1007.80 1007.91 1008.08 1007.99 1008.08 1008.28 1008.44 1008.60 1008.96 1009.36 1009.55 1009.57 1009.46 1009.39 1009.64 1009.93 1009.77 1010.25 1010.04 1009.95 1010.04 1010.67 1011.22 1011.86 1012.79 1013.45 1013.93
1017.95 1017.94 1017.77 1017.41 1017.08 1016.69 1015.98 1015.30 1014.65 1014.09 1013.70 1013.44 1013.81 1013.94 1011.05 1007.66 1007.32 1007.41 1007.74 1007.68 1007.83 1007.93 1007.89 1008.00 1008.46 1008.69 1008.73 1009.00 1009.23 1009.42 1009.49 1009.39 1009.69 1009.79 1009.93 1010.27 1009.29 1009.10 1009.76 1010.43 1010.94 1011.80 1012.68 1013.32 1013.62
1017.63 1017.60 1017.43 1017.16 1016.79 1016.16 1015.57 1014.89 1014.09 1013.58 1013.29 1013.38 1013.67 1012.81 1009.27 1007.16 1007.07 1006.41 1006.91 1007.15 1007.16 1007.59 1007.85 1007.82 1008.08 1008.22 1008.65 1008.66 1008.92 1008.94 1008.96 1009.43 1009.66 1009.56 1009.88 1009.92 1009.16 1008.98 1009.74 1010.13 1010.63 1011.46 1012.27 1012.93 1013.45
1017.23 1017.29 1017.14 1016.92 1016.65 1016.05 1015.46 1014.11 1012.88 1013.17 1013.01 1013.31 1012.50 1012.06 1008.17 1006.48 1005.99 1005.93 1006.13 1006.54 1006.85 1007.31 1007.71 1007.59 1007.72 1007.73 1008.08 1008.26 1008.01 1008.68 1008.79 1009.42 1009.56 1009.57 1009.66 1009.51 1009.18 1008.51 1009.23 1009.78 1010.18 1011.04 1011.92 1012.61 1013.15
1016.90 1016.74 1016.78 1016.71 1016.28 1015.84 1015.21 1013.99 1013.11 1013.07 1012.36 1010.38 1009.41 1008.03 1006.52 1006.06 1005.66 1005.35 1005.71 1006.15 1006.50 1006.73 1006.67 1007.05 1007.11 1006.56 1007.28 1008.16 1007.98 1008.54 1008.79 1009.02 1009.36 1009.23 1009.26 1008.93 1008.74 1008.31 1008.64 1009.10 1009.64 1010.47 1011.21 1011.98 1012.50
1016.40 1016.35 1016.30 1016.26 1015.95 1015.71 1015.57 1014.62 1014.61 1014.84 1012.12 1009.33 1008.55 1007.82 1006.40 1006.44 1006.07 1005.21 1005.13 1005.32 1005.44 1005.41 1006.13 1006.84 1005.91 1006.57 1007.21 1007.93 1008.26 1008.55 1008.68 1008.93 1009.04 1009.19 1009.35 1008.77 1008.35 1007.85 1007.97 1008.00 1008.58 1009.29 1010.27 1011.14 1012.12
1015.85 1015.70 1015.72 1015.70 1015.49 1015.46 1015.20 1014.60 1014.78 1014.50 1012.53 1007.99 1006.44 1005.55 1005.37 1005.99 1005.29 1004.70 1004.79 1004.60 1004.38 1004.74 1004.80 1004.91 1005.23 1006.46 1006.93 1007.62 1008.02 1008.20 1008.38 1008.58 1008.88 1009.31 1009.24 1008.90 1008.02 1007.34 1007.01 1007.52 1008.02 1008.67 1009.43 1010.39 1011.15
1015.41 1015.21 1015.23 1015.49 1015.79 1015.41 1014.68 1014.55 1014.57 1014.67 1011.85 1006.83 1005.08 1003.29 1003.76 1004.47 1003.98 1003.40 1003.66 1003.80 1003.92 1003.83 1004.63 1004.96 1005.69 1006.00 1006.52 1006.90 1007.32 1007.62 1007.93 1008.34 1008.85 1009.30 1008.74 1008.98 1007.73 1007.15 1006.62 1006.82 1007.18 1007.76 1008.70 1009.60 1010.61
1014.88 1014.73 1014.86 1015.14 1015.04 1014.99 1014.35 1014.26 1014.29 1014.25 1010.32 1004.13 1003.09 1001.96 1001.92 1002.20 1001.88 1002.36 1002.68 1003.35 1002.94 1003.17 1004.00 1003.96 1004.80 1005.38 1005.87 1006.20 1006.89 1006.96 1007.66 1008.26 1008.72 1008.94 1008.98 1008.72 1008.35 1006.62 1006.63 1006.06 1005.87 1006.15 1007.66 1008.83 1009.87
1014.30 1014.40 1014.47 1014.99 1015.01 1014.24 1014.25 1014.22 1013.85 1012.44 1006.22 1002.75 1001.65 1001.41 1001.83 1001.78 1001.57 1001.87 1002.00 1002.43 1002.63 1003.00 1003.46 1003.47 1004.42 1004.64 1004.91 1005.63 1006.15 1006.75 1007.77 1008.56 1009.11 1009.06 1008.60 1007.80 1007.58 1006.31 1005.66 1005.29 1005.32 1005.76 1007.02 1008.26 1009.30
1013.69 1013.71 1014.07 1013.84 1013.99 1013.90 1014.11 1013.46 1012.33 1008.03 1003.35 1001.48 1000.66 1000.69 1000.72 1000.85 1001.16 1000.85 1000.97 1001.21 1001.08 1002.13 1002.47 1003.41 1003.77 1004.25 1004.41 1005.18 1006.34 1006.65 1007.36 1007.80 1008.27 1008.34 1007.87 1007.89 1007.44 1005.80 1004.90 1004.92 1005.70 1006.00 1006.80 1007.91 1009.06
1013.09 1013.03 1013.13 1013.74 1013.28 1013.63 1013.60 1012.34 1008.55 1002.41 1001.55 1000.33 1000.01 1000.03 1000.01 1000.26 1000.45 1000.36 1000.45 1000.33 1000.70 1000.88 1001.67 1002.45 1003.27 1003.47 1003.86 1004.17 1004.98 1005.88 1006.36 1006.83 1007.10 1007.43 1007.30 1007.84 1006.46 1005.06 1004.90 1005.35 1005.68 1006.09 1006.48 1007.75 1008.83
1012.65 1012.63 1012.68 1012.97 1013.11 1013.25 1013.11 1009.79 1002.21 1000.88 1000.20 1000.00 999.87 999.56 999.88 999.85 999.74 1000.13 999.53 999.29 999.34 999.71 1000.36 1001.56 1002.05 1002.70 1003.04 1003.61 1004.38 1005.64 1006.08 1006.46 1006.70 1007.66 1007.31 1006.52 1005.95 1005.03 1004.84 1004.89 1005.55 1006.23 1007.13 1007.86 1008.63
1012.39 1012.12 1011.74 1012.07 1012.71 1012.74 1012.02 1006.42 1002.16 1000.89 1000.09 999.58 998.71 998.65 998.90 999.23 999.41 999.38 999.28 998.28 998.97 999.51 1000.00 1001.09 1001.91 1002.26 1002.73 1003.34 1004.08 1004.28 1005.23 1006.23 1006.60 1006.48 1006.20 1005.77 1005.60 1004.64 1004.46 1004.58 1005.27 1006.39 1006.97 1007.79 1008.59
1012.00 1011.32 1010.48 1011.47 1012.51 1011.92 1009.53 1004.82 1003.38 1001.76 1001.19 999.91 999.19 998.78 998.48 998.55 998.70 998.53 998.05 998.12 998.17 999.23 999.96 1000.50 1001.04 1002.63 1002.83 1002.63 1002.86 1004.28 1004.52 1005.23 1005.62 1005.75 1005.44 1005.13 1004.58 1004.24 1004.28 1004.49 1004.81 1005.54 1006.51 1007.24 1008.10
1011.32 1011.02 1010.27 1011.01 1011.64 1010.28 1008.41 1005.67 1004.94 1003.25 1001.93 1001.35 999.87 999.10 998.59 998.41 998.19 998.17 997.72 997.54 997.69 998.40 999.07 999.96 1000.92 1001.46 1002.12 1002.61 1002.40 1002.56 1003.19 1003.95 1004.11 1005.00 1005.08 1004.69 1003.92 1003.92 1004.10 1004.15 1004.59 1005.35 1006.33 1007.18 1007.52
1010.86 1010.81 1010.35 1009.79 1009.91 1009.34 1008.07 1007.30 1006.93 1005.47 1003.70 1002.43 1000.85 999.87 998.85 998.49 998.34 997.90 997.95 997.69 997.53 997.89 998.30 999.90 1000.16 1001.08 1001.99 1002.94 1002.78 1002.24 1002.72 1002.86 1003.47 1003.96 1003.76 1003.71 1003.24 1003.64 1003.93 1003.95 1004.33 1004.97 1005.68 1006.91 1007.12
1011.03 1010.72 1010.40 1009.08 1009.11 1009.15 1008.24 1007.33 1007.41 1006.64 1005.18 1004.48 1002.73 1000.90 999.87 998.97 998.63 998.53 998.29 998.13 997.82 997.74 998.32 999.03 999.41 999.04 999.04 1000.02 1001.53 1001.77 1002.01 1002.33 1002.55 1002.58 1002.74 1002.58 1002.57 1003.12 1003.24 1003.47 1003.97 1004.42 1005.31 1006.15 1006.56
1010.59 1010.23 1010.03 1009.45 1009.18 1008.61 1008.33 1007.37 1006.89 1006.82 1005.82 1004.05 1002.60 1001.83 1001.08 999.88 999.28 999.15 999.04 998.80 998.55 998.58 998.95 999.21 998.92 999.41 999.40 1000.01 1000.40 1000.44 1000.92 1001.36 1001.61 1001.74 1001.71 1001.70 1001.72 1001.76 1002.01 1002.59 1003.08 1003.54 1004.79 1005.71 1006.06
1010.00 1010.05 1009.81 1009.16 1008.91 1008.25 1008.12 1007.13 1006.53 1005.90 1005.39 1003.78 1003.15 1002.12 1001.98 1001.21 1000.72 1000.05 999.93 999.79 999.46 999.45 999.36 999.78 999.29 999.65 999.50 999.89 999.84 999.68 1000.00 1000.28 1000.47 1000.65 1000.84 1000.82 1000.58 1000.97 1001.33 1002.06 1002.68 1003.06 1004.20 1005.19 1005.15
1009.72 1009.43 1009.26 1008.91 1008.47 1007.86 1007.30 1006.59 1005.94 1005.77 1004.86 1004.15 1003.41 1002.88 1002.44 1002.07 1001.72 1001.46 1001.30 1001.01 1000.48 1000.24 1000.02 1000.01 999.84 999.95 999.61 999.86 999.90 998.78 998.53 999.11 999.55 999.96 1000.12 1000.06 999.97 1000.54 1001.08 1001.24 1001.34 1002.27 1003.19 1003.73 1004.12
Wind_Speed
17 16 15 15 14 15 16 17 17 17 15 15 14 14 16 17 12 3 7 9 8 18 12 10 4 5 4 5 3 2 4 5 5 4 4 3 6 3 0 4 3 3 1 1 10
14 13 14 15 15 15 16 17 18 18 17 18 17 16 16 15 5 12 11 17 15 18 11 12 9 10 5 6 5 5 4 5 5 5 8 4 9 6 6 4 4 3 5 8 8
14 15 16 17 18 16 18 18 18 18 17 17 17 16 16 13 6 7 3 11 17 19 8 7 10 11 7 4 6 5 9 10 11 16 10 5 7 7 7 6 9 13 12 11 7
15 16 17 17 17 19 19 20 19 18 16 16 16 15 15 3 7 3 2 9 10 11 12 11 11 8 5 5 5 8 11 9 8 5 6 5 5 7 10 9 2 9 15 12 10
15 16 17 18 18 18 18 19 20 19 18 16 14 13 6 4 13 4 6 12 12 14 18 14 12 7 8 6 5 9 13 5 6 4 5 6 4 6 11 6 4 12 14 12 9
14 15 16 17 19 19 18 18 18 18 19 16 12 7 4 14 5 9 7 5 10 16 16 14 12 12 4 5 11 6 9 1 1 1 1 3 2 3 2 7 9 14 14 11 10
13 14 15 17 18 20 21 21 20 22 21 19 12 5 7 19 4 2 7 3 7 9 9 14 9 9 9 5 5 3 5 3 2 2 1 3 6 10 7 10 12 13 11 10 10
11 12 14 16 18 19 21 22 23 23 22 17 8 6 11 6 8 15 6 5 4 6 7 11 9 4 4 3 1 4 3 2 1 3 0 7 13 9 8 13 14 13 11 11 11
12 11 12 15 18 20 21 24 28 21 10 5 8 6 10 2 5 9 11 9 12 5 10 7 13 6 5 7 5 2 4 5 5 5 2 8 10 6 3 13 13 13 13 12 10
10 12 12 11 15 18 21 27 18 5 4 6 5 3 9 6 4 4 6 13 4 12 8 8 5 8 6 9 11 7 4 3 4 1 6 7 14 18 8 12 15 14 13 12 12
13 12 10 9 14 16 15 7 3 4 6 10 8 5 4 4 3 4 6 15 8 8 12 9 10 16 16 10 6 7 4 4 5 6 4 9 13 19 11 11 13 13 15 14 14
14 12 8 7 12 14 3 3 5 5 9 15 19 18 13 2 5 4 12 12 11 13 11 8 18 12 11 10 8 6 4 5 6 3 5 9 14 16 11 8 13 16 16 17 14
15 11 8 6 9 4 4 0 6 7 7 9 12 14 16 15 10 7 11 7 11 13 21 19 9 13 11 10 9 6 6 4 8 1 5 6 8 7 5 5 6 10 15 16 17
13 13 8 4 3 3 4 3 7 1 6 7 10 11 17 11 11 15 14 8 6 19 14 12 10 15 11 13 12 10 11 6 5 4 8 2 6 7 7 12 9 10 14 16 17
15 13 10 7 1 3 2 8 7 3 8 5 8 1 12 24 10 13 13 9 14 10 11 15 15 15 12 12 12 9 6 5 3 6 3 4 5 4 4 9 14 11 14 16 18
12 14 9 5 2 5 6 10 4 5 15 4 9 12 13 21 9 7 12 6 5 8 7 17 4 11 14 7 12 5 4 3 2 3 4 6 6 3 5 7 6 4 8 16 18
15 12 11 7 4 5 4 3 7 13 0 8 8 10 15 14 17 11 20 21 17 17 19 10 14 6 7 9 4 8 7 5 4 5 6 2 5 8 12 12 9 14 6 14 17
16 11 6 7 7 3 1 6 14 12 18 2 5 11 14 16 17 14 19 21 21 21 15 17 15 16 9 18 13 13 13 8 5 5 7 3 5 6 3 3 5 7 3 12 17
12 6 3 5 8 6 4 15 18 14 16 8 6 11 9 13 9 15 21 22 24 24 17 19 19 7 14 9 17 7 8 6 8 2 4 3 5 11 2 6 1 3 6 12 17
3 4 6 14 8 6 7 25 15 8 5 23 16 9 15 19 11 18 20 17 20 22 16 7 10 13 11 10 7 13 13 6 3 5 7 4 3 7 8 7 2 4 7 12 15
3 5 6 15 6 6 14 18 21 13 9 12 22 9 8 12 18 17 12 11 22 20 19 13 8 4 10 16 18 8 9 2 3 3 8 8 5 5 5 4 5 6 9 15 17
3 5 7 13 8 4 16 14 10 12 22 8 4 19 8 10 15 14 17 12 19 18 24 18 10 15 10 3 14 22 18 15 11 9 4 5 9 5 8 5 5 1 7 11 17
3 3 8 12 9 4 14 19 19 13 12 5 6 3 10 8 6 11 9 6 13 22 20 13 11 13 12 5 3 13 12 13 6 4 13 12 7 5 6 5 4 8 11 13 16
2 3 2 5 3 5 17 18 14 14 20 16 16 8 5 10 3 4 8 0 9 18 12 19 10 24 19 11 14 10 12 14 16 11 10 12 14 6 10 7 7 10 11 13 16
3 4 3 3 6 16 9 8 19 13 15 10 10 12 5 8 11 10 3 4 4 5 10 15 18 16 21 17 17 19 19 18 17 16 14 13 12 13 14 11 8 8 11 13 16
4 3 5 2 3 16 7 11 20 12 20 17 14 6 2 4 3 8 1 4 3 5 8 2 7 14 18 15 21 23 21 19 21 20 18 18 17 11 8 9 9 11 13 13 17
1 2 2 1 3 4 9 17 13 18 9 24 12 18 9 3 3 3 3 4 1 1 4 5 8 8 14 11 16 21 25 23 21 17 16 17 18 9 10 13 13 13 15 17 17
Wind_Direction
349 353 345 336 344 347 336 328 344 342 345 347 348 326 332 330 313 153 228 221 179 163 139 151 170 162 181 154 135 156 231 252 257 237 285 194 221 160 359 153 121 141 237 50 133
338 337 330 332 345 341 327 334 341 339 348 347 343 345 330 329 285 256 210 213 162 165 143 163 165 165 182 163 167 214 232 231 225 215 253 223 219 192 191 150 195 180 111 135 151
335 336 334 342 334 329 343 334 335 334 342 335 334 330 325 326 287 257 237 218 167 175 162 179 152 173 196 160 176 187 250 248 249 245 246 246 208 189 201 205 205 212 166 164 170
332 334 339 333 331 333 334 333 325 328 331 328 326 326 326 283 255 142 54 196 156 173 146 160 154 172 179 205 190 238 239 242 286 260 189 220 161 204 211 238 154 202 164 169 178
331 330 331 330 332 331 326 321 322 322 321 321 319 327 333 235 240 208 119 114 141 170 191 174 184 180 217 203 191 230 260 202 253 257 213 148 223 236 235 209 123 144 161 174 174
324 324 323 326 328 326 320 316 316 314 315 311 305 306 227 249 250 243 251 199 186 176 200 186 192 190 183 210 217 226 231 194 110 319 165 214 194 228 278 159 154 162 174 174 180
318 318 321 324 324 322 319 317 316 311 310 302 285 229 238 241 217 121 156 193 171 185 178 208 171 170 174 218 233 268 192 138 172 197 22 196 245 231 230 179 177 183 175 176 187
309 311 316 321 321 318 316 312 306 304 303 295 226 192 247 234 264 255 232 251 229 218 217 178 185 157 200 134 129 214 100 165 105 180 122 220 274 273 212 180 197 187 185 186 190
298 301 304 314 318 318 314 305 300 298 285 176 155 225 260 319 230 233 188 210 215 188 195 151 168 181 153 216 205 185 247 274 294 211 155 216 267 274 192 206 205 193 191 195 195
281 285 282 297 311 314 314 305 293 269 144 185 255 259 249 218 204 193 184 187 159 143 144 172 161 178 179 199 219 235 198 194 246 233 213 243 254 273 250 213 218 201 193 196 202
277 265 278 294 309 315 329 335 231 188 213 212 194 242 305 321 259 190 164 169 154 162 177 179 191 206 201 207 213 224 193 226 240 255 256 262 273 276 277 231 218 203 198 198 204
290 272 263 289 303 321 320 305 47 335 294 243 249 255 266 312 308 245 164 168 179 184 148 157 215 199 178 193 184 180 188 235 269 271 224 278 272 276 266 248 225 212 201 199 193
285 266 259 286 307 323 314 26 350 356 266 263 214 220 223 189 216 236 187 174 186 172 187 201 192 159 171 171 182 187 209 214 286 318 237 279 271 280 290 258 240 226 215 200 193
278 269 221 277 256 336 252 6 343 290 281 252 207 229 192 191 236 203 196 182 187 199 182 207 156 167 178 193 197 217 217 239 245 264 292 233 296 291 294 291 261 231 206 198 191
283 276 202 191 201 244 7 325 316 186 272 171 177 102 170 182 151 191 177 194 205 170 178 188 170 179 186 202 184 241 163 203 228 250 293 204 243 269 291 278 270 248 207 199 190
275 275 212 126 218 241 310 314 184 203 242 211 159 168 155 197 206 123 166 185 165 170 210 211 172 189 204 187 190 155 131 93 97 176 244 241 229 259 245 246 267 258 200 194 185
267 258 236 170 203 162 284 242 192 226 47 187 180 172 172 178 203 177 180 186 183 180 202 183 199 185 192 204 134 175 188 236 231 215 269 101 202 263 269 266 278 296 259 192 182
282 253 241 208 160 169 276 203 219 222 211 105 140 165 184 158 207 196 182 190 200 200 186 196 206 196 178 212 201 195 205 232 236 240 294 137 232 258 277 344 306 317 259 174 178
279 261 224 180 171 153 210 205 222 192 194 200 155 165 184 189 183 193 208 203 192 190 191 196 216 173 182 187 196 169 199 233 247 56 259 252 245 276 266 251 289 94 161 170 180
255 236 219 154 178 156 206 230 228 207 184 209 204 182 186 188 186 194 183 206 200 198 200 168 196 206 185 196 194 204 159 173 189 223 250 207 264 267 292 314 238 199 189 174 178
245 239 168 162 168 200 210 230 235 267 333 204 221 207 196 173 195 197 203 195 189 185 196 173 188 145 175 199 203 176 200 182 237 239 257 272 261 230 227 290 309 230 199 175 179
228 243 167 152 191 223 214 225 315 309 253 305 268 230 208 178 186 196 202 200 188 160 192 188 198 207 193 171 229 205 206 206 224 205 233 278 265 192 216 256 293 181 185 192 178
205 262 200 170 211 210 233 241 263 292 307 272 284 309 218 190 199 211 190 217 181 184 177 166 201 197 217 198 166 211 197 206 219 229 222 242 250 164 238 257 196 163 171 185 175
127 254 208 217 213 237 225 226 238 269 270 262 290 298 241 218 211 155 192 140 182 194 169 175 185 208 212 232 195 199 189 203 201 218 228 237 253 213 222 223 197 166 171 182 180
172 221 298 208 216 222 223 244 228 231 261 255 246 247 324 235 215 211 156 171 90 167 155 185 217 217 224 202 194 211 212 205 211 223 227 230 223 236 220 208 208 153 157 179 179
181 229 150 292 319 227 211 205 232 241 221 243 247 243 139 316 330 185 240 24 94 56 156 157 200 202 217 208 214 224 221 211 217 218 230 244 248 239 222 190 190 161 165 194 186
263 173 307 196 245 192 206 227 218 221 242 237 254 246 269 284 6 348 298 295 351 49 111 138 149 162 215 202 219 242 228 219 218 211 217 226 239 193 195 201 202 177 184 195 197